Location: Newport
(44.6370°N, 124.0520°W)
Time: 09:19:46
(UTC-07:00)

N. Korean satellite - Pass Details

Date: 16 October 2017
Orbit: 459 x 517 km, 97.2° (Epoch: 19 October)

Event Time Altitude Azimuth Distance (km) Brightness Sun altitude
Rises 20:20:18 0° 209° (SSW) 2,534 10.5 -20.5°
Reaches altitude 10° 20:23:12 10° 236° (SW) 1,648 9.9 -21.0°
Maximum altitude 20:25:05 14° 268° (W) 1,424 9.9 -21.3°
Drops below altitude 10° 20:26:58 10° 301° (WNW) 1,641 10.2 -21.7°
Sets 20:29:52 0° 328° (NNW) 2,514 10.8 -22.2°
